Regional Weather Roundup
Issued by NWS

Home | Current Version | Previous Version | Graphics & Text | Print | Product List | Glossary On
Versions: 1 2 3 4 5 6 7 8 9 10 11 12 13 14 15 16 17 18 19 20 21 22 23 24 25 26 27 28 29 30 31 32 33 34 35 36 37 38 39 40 41 42 43 44 45 46 47 48 49 50
000
ASUS45 KABQ 261801
RWRNM
NEW MEXICO REGIONAL WEATHER ROUNDUP
NATIONAL WEATHER SERVICE ALBUQUERQUE NM
1200 PM MDT FRI MAY 26 2017

NOTE: "FAIR" MEANS FEW OR NO CLOUDS BELOW 12,000 FEET AGL WITH NO
       SIGNIFICANT WEATHER OR OBSTRUCTIONS TO VISION.

      THIS PRODUCT IS RELEASED AS TWO VERSIONS.  ONE VERSION NEAR
      THE TOP OF THE HOUR CONTAINING PRELIMINARY DATA FROM ALBUQUERQUE
      AND OTHER STATIONS.  A FINAL VERSION WITH ADDITIONAL DATA IS
      ISSUED ABOUT 10 MINUTES AFTER THE HOUR.

NMZ501-503-504-510>518-261900-
NORTHWEST PLATEAU/NORTHCENTRAL MOUNTAINS

CITY           SKY/WX    TMP DP  RH WIND       PRES   REMARKS
FARMINGTON     FAIR      73  11   9 SW9G18    29.95F
6HR MIN TEMP:  49; 6HR MAX TEMP:  75;

SANTA FE       FAIR      74  17  11 W12G24    30.06F
6HR MIN TEMP:  44; 6HR MAX TEMP:  74;

TAOS           FAIR      68  18  14 SW12G20   30.10S

$$
NMZ402-403-502-505>509-261900-
WESTCENTRAL MOUNTAINS/SOUTHWEST MOUNTAINS

CITY           SKY/WX    TMP DP  RH WIND       PRES   REMARKS
GALLUP         FAIR      70  16  12 SW24G39   30.06F
6HR MIN TEMP:  48; 6HR MAX TEMP:  71;

GRANTS         FAIR      73  14  10 SW7G22    30.07F
SILVER CITY    FAIR      77  28  16 SW20G30   30.09S

$$
NMZ407-409-411-412-261900-
SOUTHERN DESERTS

CITY           SKY/WX    TMP DP  RH WIND       PRES   REMARKS
DEMING         FAIR      84  30  14 W16G31    30.02F
6HR MIN TEMP:  56; 6HR MAX TEMP:  85;

HOLLOMAN AFB   FAIR      84  27  12 S16G23    30.03F
ALAMOGORDO     FAIR      82  27  13 SW9G21    30.02F
T OR C         LGT RAIN  84  16   8 SW16G26   29.99F
6HR MIN TEMP:  60; 6HR MAX TEMP:  84; 6HR PCP: TRACE;


$$
NMZ519>523-261900-
CENTRAL VALLEYS/CENTRAL HIGHLANDS

CITY           SKY/WX    TMP DP  RH WIND       PRES   REMARKS
ALBUQUERQUE    FAIR      76  14   9 VRB6      30.03F
6HR MIN TEMP:  52; 6HR MAX TEMP:  76;

DOUBLE EAGLE   SUNNY     73  21  14 SW9       30.06F
CLINES CORNERS FAIR      71  17  12 W26G39    30.11S
6HR MIN TEMP:  50; 6HR MAX TEMP:  71;

BELEN          FAIR      80  16   9 SW5G18    30.01F
6HR MIN TEMP:  50; 6HR MAX TEMP:  80;

SOCORRO        NOT AVBL

$$
NMZ524>526-539-540-261900-
SOUTHCENTRAL MOUNTAINS

CITY           SKY/WX    TMP DP  RH WIND       PRES   REMARKS
RUIDOSO        NOT AVBL

$$
NMZ527>531-261900-
NORTHEAST HIGHLANDS/NORTHEAST PLAINS

CITY           SKY/WX    TMP DP  RH WIND       PRES   REMARKS
LAS VEGAS      FAIR      72  11   9 S12G22    30.05F
6HR MIN TEMP:  53; 6HR MAX TEMP:  74;

RATON          FAIR      72  29  20 S10G23    30.00F
6HR MIN TEMP:  47; 6HR MAX TEMP:  73;

CLAYTON        FAIR      70  48  45 SE10G17   30.00S
6HR MIN TEMP:  51; 6HR MAX TEMP:  71;


$$
NMZ532>537-261900-
EASTCENTRAL PLAINS

CITY           SKY/WX    TMP DP  RH WIND       PRES   REMARKS
SANTA ROSA     FAIR      81  19   9 W18G26    29.96F
TUCUMCARI      FAIR      79  47  32 MISG      29.94F
6HR MIN TEMP:  51; 6HR MAX TEMP:  79;

CANNON AFB     FAIR      83  25  12 CALM      29.99F
6HR MIN TEMP:  60; 6HR MAX TEMP:  83;

CLOVIS AIRPORT FAIR      81  39  22 W10G18    29.99F

$$
NMZ028-029-538-261900-
SOUTHEAST PLAINS

CITY           SKY/WX    TMP DP  RH WIND       PRES   REMARKS
ROSWELL        FAIR      90  23   9 E13       29.94F
6HR MIN TEMP:  61; 6HR MAX TEMP:  90;

ARTESIA        FAIR      88  27  11 CALM      29.95F
CARLSBAD       FAIR      89  26  10 SW17G24   29.95F
6HR MIN TEMP:  69; 6HR MAX TEMP:  89;

HOBBS          SUNNY     88  23   9 W12G18    29.98F


$$



USA.gov is the U.S. government's official web portal to all federal, state and local government web resources and services.